Year,Month,Day,Hour,Minute,Value (Times are PST for temperature in C)
2015,07,18,00,00,18.80
2015,07,18,00,01,18.80
2015,07,18,00,02,18.80
2015,07,18,00,03,18.80
2015,07,18,00,04,18.80
2015,07,18,00,05,18.80
2015,07,18,00,06,18.80
2015,07,18,00,07,18.80
2015,07,18,00,08,18.80
2015,07,18,00,09,18.80
2015,07,18,00,10,18.80
2015,07,18,00,11,18.80
2015,07,18,00,12,18.90
2015,07,18,00,13,18.90
2015,07,18,00,14,18.90
2015,07,18,00,15,18.90
2015,07,18,00,16,18.80
2015,07,18,00,17,18.80
2015,07,18,00,18,18.80
2015,07,18,00,19,18.80
2015,07,18,00,20,18.80
2015,07,18,00,21,18.80
2015,07,18,00,22,18.80
2015,07,18,00,23,18.80
2015,07,18,00,24,18.90
2015,07,18,00,25,18.90
2015,07,18,00,26,18.90
2015,07,18,00,27,18.90
2015,07,18,00,28,18.90
2015,07,18,00,29,18.90
2015,07,18,00,30,18.90
2015,07,18,00,31,18.90
2015,07,18,00,32,18.90
2015,07,18,00,33,18.90
2015,07,18,00,34,18.90
2015,07,18,00,35,18.90
2015,07,18,00,36,18.90
2015,07,18,00,37,18.90
2015,07,18,00,38,19.00
2015,07,18,00,39,19.00
2015,07,18,00,40,19.00
2015,07,18,00,41,19.00
2015,07,18,00,42,19.00
2015,07,18,00,43,19.00
2015,07,18,00,44,19.00
2015,07,18,00,45,19.10
2015,07,18,00,46,19.10
2015,07,18,00,47,19.10
2015,07,18,00,48,19.10
2015,07,18,00,49,19.10
2015,07,18,00,50,19.10
2015,07,18,00,51,19.10
2015,07,18,00,52,19.10
2015,07,18,00,53,19.10
2015,07,18,00,54,19.10
2015,07,18,00,55,19.10
2015,07,18,00,56,19.20
2015,07,18,00,57,19.20
2015,07,18,00,58,19.20
2015,07,18,00,59,19.20
2015,07,18,01,00,19.20
2015,07,18,01,01,19.20
2015,07,18,01,02,19.20
2015,07,18,01,03,19.20
2015,07,18,01,04,19.20
2015,07,18,01,05,19.10
2015,07,18,01,06,19.10
2015,07,18,01,07,19.10
2015,07,18,01,08,19.10
2015,07,18,01,09,19.10
2015,07,18,01,10,19.10
2015,07,18,01,11,19.10
2015,07,18,01,12,19.00
2015,07,18,01,13,19.00
2015,07,18,01,14,19.00
2015,07,18,01,15,19.00
2015,07,18,01,16,18.90
2015,07,18,01,17,18.90
2015,07,18,01,18,18.90
2015,07,18,01,19,18.90
2015,07,18,01,20,18.90
2015,07,18,01,21,18.80
2015,07,18,01,22,18.80
2015,07,18,01,23,18.80
2015,07,18,01,24,18.80
2015,07,18,01,25,18.70
2015,07,18,01,26,18.70
2015,07,18,01,27,18.70
2015,07,18,01,28,18.70
2015,07,18,01,29,18.70
2015,07,18,01,30,18.60
2015,07,18,01,31,18.60
2015,07,18,01,32,18.50
2015,07,18,01,33,18.50
2015,07,18,01,34,18.40
2015,07,18,01,35,18.40
2015,07,18,01,36,18.30
2015,07,18,01,37,18.30
2015,07,18,01,38,18.30
2015,07,18,01,39,18.20
2015,07,18,01,40,18.20
2015,07,18,01,41,18.10
2015,07,18,01,42,18.10
2015,07,18,01,43,18.10
2015,07,18,01,44,18.00
2015,07,18,01,45,18.00
2015,07,18,01,46,17.90
2015,07,18,01,47,17.90
2015,07,18,01,48,17.80
2015,07,18,01,49,17.80
2015,07,18,01,50,17.70
2015,07,18,01,51,17.70
2015,07,18,01,52,17.70
2015,07,18,01,53,17.70
2015,07,18,01,54,17.60
2015,07,18,01,55,17.60
2015,07,18,01,56,17.60
2015,07,18,01,57,17.50
2015,07,18,01,58,17.50
2015,07,18,01,59,17.40
2015,07,18,02,00,17.40
2015,07,18,02,01,17.40
2015,07,18,02,02,17.30
2015,07,18,02,03,17.30
2015,07,18,02,04,17.30
2015,07,18,02,05,17.30
2015,07,18,02,06,17.20
2015,07,18,02,07,17.20
2015,07,18,02,08,17.20
2015,07,18,02,09,17.10
2015,07,18,02,10,17.10
2015,07,18,02,11,17.00
2015,07,18,02,12,17.00
2015,07,18,02,13,16.90
2015,07,18,02,14,16.90
2015,07,18,02,15,16.90
2015,07,18,02,16,16.80
2015,07,18,02,17,16.80
2015,07,18,02,18,16.80
2015,07,18,02,19,16.70
2015,07,18,02,20,16.70
2015,07,18,02,21,16.70
2015,07,18,02,22,16.60
2015,07,18,02,23,16.60
2015,07,18,02,24,16.60
2015,07,18,02,25,16.60
2015,07,18,02,26,16.50
2015,07,18,02,27,16.50
2015,07,18,02,28,16.50
2015,07,18,02,29,16.40
2015,07,18,02,30,16.40
2015,07,18,02,31,16.40
2015,07,18,02,32,16.40
2015,07,18,02,33,16.30
2015,07,18,02,34,16.30
2015,07,18,02,35,16.30
2015,07,18,02,36,16.20
2015,07,18,02,37,16.20
2015,07,18,02,38,16.20
2015,07,18,02,39,16.10
2015,07,18,02,40,16.10
2015,07,18,02,41,16.10
2015,07,18,02,42,16.00
2015,07,18,02,43,16.00
2015,07,18,02,44,15.90
2015,07,18,02,45,15.90
2015,07,18,02,46,15.90
2015,07,18,02,47,15.90
2015,07,18,02,48,15.80
2015,07,18,02,49,15.80
2015,07,18,02,50,15.80
2015,07,18,02,51,15.80
2015,07,18,02,52,15.80
2015,07,18,02,53,15.80
2015,07,18,02,54,15.80
2015,07,18,02,55,15.80
2015,07,18,02,56,15.90
2015,07,18,02,57,15.90
2015,07,18,02,58,16.00
2015,07,18,02,59,16.00
2015,07,18,03,00,16.10
2015,07,18,03,01,16.10
2015,07,18,03,02,16.20
2015,07,18,03,03,16.20
2015,07,18,03,04,16.30
2015,07,18,03,05,16.30
2015,07,18,03,06,16.40
2015,07,18,03,07,16.40
2015,07,18,03,08,16.40
2015,07,18,03,09,16.50
2015,07,18,03,10,16.50
2015,07,18,03,11,16.50
2015,07,18,03,12,16.50
2015,07,18,03,13,16.50
2015,07,18,03,14,16.50
2015,07,18,03,15,16.50
2015,07,18,03,16,16.40
2015,07,18,03,17,16.40
2015,07,18,03,18,16.40
2015,07,18,03,19,16.40
2015,07,18,03,20,16.40
2015,07,18,03,21,16.40
2015,07,18,03,22,16.40
2015,07,18,03,23,16.30
2015,07,18,03,24,16.30
2015,07,18,03,25,16.30
2015,07,18,03,26,16.30
2015,07,18,03,27,16.30
2015,07,18,03,28,16.30
2015,07,18,03,29,16.30
2015,07,18,03,30,16.30
2015,07,18,03,31,16.30
2015,07,18,03,32,16.30
2015,07,18,03,33,16.30
2015,07,18,03,34,16.30
2015,07,18,03,35,16.30
2015,07,18,03,36,16.30
2015,07,18,03,37,16.30
2015,07,18,03,38,16.30
2015,07,18,03,39,16.30
2015,07,18,03,40,16.30
2015,07,18,03,41,16.30
2015,07,18,03,42,16.30
2015,07,18,03,43,16.30
2015,07,18,03,44,16.20
2015,07,18,03,45,16.20
2015,07,18,03,46,16.20
2015,07,18,03,47,16.20
2015,07,18,03,48,16.20
2015,07,18,03,49,16.20
2015,07,18,03,50,16.20
2015,07,18,03,51,16.10
2015,07,18,03,52,16.10
2015,07,18,03,53,16.10
2015,07,18,03,54,16.10
2015,07,18,03,55,16.10
2015,07,18,03,56,16.10
2015,07,18,03,57,16.10
2015,07,18,03,58,16.10
2015,07,18,03,59,16.10
2015,07,18,04,00,16.10
2015,07,18,04,01,16.10
2015,07,18,04,02,16.10
2015,07,18,04,03,16.10
2015,07,18,04,04,16.10
2015,07,18,04,05,16.10
2015,07,18,04,06,16.10
2015,07,18,04,07,16.10
2015,07,18,04,08,16.10
2015,07,18,04,09,16.10
2015,07,18,04,10,16.10
2015,07,18,04,11,16.10
2015,07,18,04,12,16.10
2015,07,18,04,13,16.10
2015,07,18,04,14,16.10
2015,07,18,04,15,16.10
2015,07,18,04,16,16.10
2015,07,18,04,17,16.10
2015,07,18,04,18,16.10
2015,07,18,04,19,16.10
2015,07,18,04,20,16.10
2015,07,18,04,21,16.10
2015,07,18,04,22,16.10
2015,07,18,04,23,16.10
2015,07,18,04,24,16.10
2015,07,18,04,25,16.10
2015,07,18,04,26,16.10
2015,07,18,04,27,16.10
2015,07,18,04,28,16.10
2015,07,18,04,29,16.10
2015,07,18,04,30,16.00
2015,07,18,04,31,16.00
2015,07,18,04,32,16.00
2015,07,18,04,33,16.00
2015,07,18,04,34,16.00
2015,07,18,04,35,15.90
2015,07,18,04,36,15.90
2015,07,18,04,37,15.90
2015,07,18,04,38,15.90
2015,07,18,04,39,15.90
2015,07,18,04,40,15.90
2015,07,18,04,41,15.90
2015,07,18,04,42,15.90
2015,07,18,04,43,15.90
2015,07,18,04,44,15.90
2015,07,18,04,45,16.00
2015,07,18,04,46,16.00
2015,07,18,04,47,16.00
2015,07,18,04,48,16.00
2015,07,18,04,49,16.00
2015,07,18,04,50,16.10
2015,07,18,04,51,16.10
2015,07,18,04,52,16.10
2015,07,18,04,53,16.10
2015,07,18,04,54,16.10
2015,07,18,04,55,16.10
2015,07,18,04,56,16.10
2015,07,18,04,57,16.10
2015,07,18,04,58,16.10
2015,07,18,04,59,16.10
2015,07,18,05,00,16.10
2015,07,18,05,01,16.00
2015,07,18,05,02,16.00
2015,07,18,05,03,16.10
2015,07,18,05,04,16.10
2015,07,18,05,05,16.10
2015,07,18,05,06,16.10
2015,07,18,05,07,16.10
2015,07,18,05,08,16.10
2015,07,18,05,09,16.10
2015,07,18,05,10,16.10
2015,07,18,05,11,16.10
2015,07,18,05,12,16.10
2015,07,18,05,13,16.10
2015,07,18,05,14,16.20
2015,07,18,05,15,16.20
2015,07,18,05,16,16.20
2015,07,18,05,17,16.20
2015,07,18,05,18,16.20
2015,07,18,05,19,16.10
2015,07,18,05,20,16.10
2015,07,18,05,21,16.10
2015,07,18,05,22,16.10
2015,07,18,05,23,16.10
2015,07,18,05,24,16.10
2015,07,18,05,25,16.10
2015,07,18,05,26,16.10
2015,07,18,05,27,16.10
2015,07,18,05,28,16.10
2015,07,18,05,29,16.00
2015,07,18,05,30,16.00
2015,07,18,05,31,16.00
2015,07,18,05,32,16.00
2015,07,18,05,33,16.00
2015,07,18,05,34,16.00
2015,07,18,05,35,16.00
2015,07,18,05,36,16.00
2015,07,18,05,37,16.00
2015,07,18,05,38,16.00
2015,07,18,05,39,16.00
2015,07,18,05,40,16.00
2015,07,18,05,41,16.00
2015,07,18,05,42,16.00
2015,07,18,05,43,16.10
2015,07,18,05,44,16.10
2015,07,18,05,45,16.10
2015,07,18,05,46,16.10
2015,07,18,05,47,16.10
2015,07,18,05,48,16.20
2015,07,18,05,49,16.20
2015,07,18,05,50,16.20
2015,07,18,05,51,16.20
2015,07,18,05,52,16.20
2015,07,18,05,53,16.30
2015,07,18,05,54,16.30
2015,07,18,05,55,16.30
2015,07,18,05,56,16.40
2015,07,18,05,57,16.40
2015,07,18,05,58,16.40
2015,07,18,05,59,16.40
2015,07,18,06,00,16.40
2015,07,18,06,01,16.40
2015,07,18,06,02,16.50
2015,07,18,06,03,16.50
2015,07,18,06,04,16.60
2015,07,18,06,05,16.60
2015,07,18,06,06,16.60
2015,07,18,06,07,16.70
2015,07,18,06,08,16.70
2015,07,18,06,09,16.70
2015,07,18,06,10,16.70
2015,07,18,06,11,16.80
2015,07,18,06,12,16.80
2015,07,18,06,13,16.90
2015,07,18,06,14,16.90
2015,07,18,06,15,16.90
2015,07,18,06,16,17.00
2015,07,18,06,17,17.10
2015,07,18,06,18,17.10
2015,07,18,06,19,17.10
2015,07,18,06,20,17.20
2015,07,18,06,21,17.20
2015,07,18,06,22,17.30
2015,07,18,06,23,17.30
2015,07,18,06,24,17.30
2015,07,18,06,25,17.30
2015,07,18,06,26,17.40
2015,07,18,06,27,17.40
2015,07,18,06,28,17.40
2015,07,18,06,29,17.40
2015,07,18,06,30,17.40
2015,07,18,06,31,17.50
2015,07,18,06,32,17.50
2015,07,18,06,33,17.50
2015,07,18,06,34,17.40
2015,07,18,06,35,17.40
2015,07,18,06,36,17.40
2015,07,18,06,37,17.30
2015,07,18,06,38,17.30
2015,07,18,06,39,17.30
2015,07,18,06,40,17.20
2015,07,18,06,41,17.20
2015,07,18,06,42,17.20
2015,07,18,06,43,17.20
2015,07,18,06,44,17.20
2015,07,18,06,45,17.10
2015,07,18,06,46,17.10
2015,07,18,06,47,17.10
2015,07,18,06,48,17.20
2015,07,18,06,49,17.20
2015,07,18,06,50,17.30
2015,07,18,06,51,17.30
2015,07,18,06,52,17.40
2015,07,18,06,53,17.50
2015,07,18,06,54,17.50
2015,07,18,06,55,17.50
2015,07,18,06,58,17.70
2015,07,18,06,59,17.70
2015,07,18,07,00,17.70
2015,07,18,07,01,17.70
2015,07,18,07,02,17.80
2015,07,18,07,03,17.80
2015,07,18,07,04,17.80
2015,07,18,07,05,17.80
2015,07,18,07,06,17.70
2015,07,18,07,07,17.70
2015,07,18,07,08,17.60
2015,07,18,07,09,17.50
2015,07,18,07,10,17.50
2015,07,18,07,11,17.40
2015,07,18,07,12,17.40
2015,07,18,07,13,17.40
2015,07,18,07,14,17.40
2015,07,18,07,15,17.40
2015,07,18,07,16,17.40
2015,07,18,07,17,17.40
2015,07,18,07,18,17.40
2015,07,18,07,19,17.40
2015,07,18,07,20,17.30
2015,07,18,07,21,17.30
2015,07,18,07,22,17.30
2015,07,18,07,23,17.30
2015,07,18,07,24,17.20
2015,07,18,07,25,17.20
2015,07,18,07,26,17.20
2015,07,18,07,27,17.20
2015,07,18,07,28,17.20
2015,07,18,07,29,17.20
2015,07,18,07,30,17.20
2015,07,18,07,31,17.20
2015,07,18,07,32,17.20
2015,07,18,07,33,17.20
2015,07,18,07,34,17.20
2015,07,18,07,35,17.30
2015,07,18,07,36,17.30
2015,07,18,07,37,17.30
2015,07,18,07,38,17.40
2015,07,18,07,39,17.40
2015,07,18,07,40,17.50
2015,07,18,07,41,17.60
2015,07,18,07,42,17.60
2015,07,18,07,43,17.70
2015,07,18,07,44,17.80
2015,07,18,07,45,17.80
2015,07,18,07,46,17.90
2015,07,18,07,47,18.00
2015,07,18,07,48,18.00
2015,07,18,07,49,18.10
2015,07,18,07,50,18.20
2015,07,18,07,51,18.30
2015,07,18,07,52,18.40
2015,07,18,07,53,18.50
2015,07,18,07,54,18.70
2015,07,18,07,55,18.90
2015,07,18,07,56,19.00
2015,07,18,07,57,19.10
2015,07,18,07,58,19.20
2015,07,18,07,59,19.30
2015,07,18,08,00,19.40
2015,07,18,08,01,19.50
2015,07,18,08,02,19.60
2015,07,18,08,03,19.60
2015,07,18,08,04,19.70
2015,07,18,08,05,19.80
2015,07,18,08,06,19.80
2015,07,18,08,07,19.90
2015,07,18,08,08,19.90
2015,07,18,08,09,20.00
2015,07,18,08,10,20.10
2015,07,18,08,11,20.10
2015,07,18,08,12,20.20
2015,07,18,08,13,20.20
2015,07,18,08,14,20.30
2015,07,18,08,15,20.30
2015,07,18,08,16,20.40
2015,07,18,08,17,20.40
2015,07,18,08,18,20.40
2015,07,18,08,19,20.50
2015,07,18,08,20,20.50
2015,07,18,08,21,20.60
2015,07,18,08,22,20.60
2015,07,18,08,23,20.60
2015,07,18,08,24,20.60
2015,07,18,08,25,20.60
2015,07,18,08,26,20.60
2015,07,18,08,27,20.70
2015,07,18,08,28,20.70
2015,07,18,08,29,20.70
2015,07,18,08,30,20.80
2015,07,18,08,31,20.80
2015,07,18,08,32,20.80
2015,07,18,08,33,20.90
2015,07,18,08,34,20.90
2015,07,18,08,35,21.00
2015,07,18,08,36,21.00
2015,07,18,08,37,21.00
2015,07,18,08,38,21.00
2015,07,18,08,39,21.00
2015,07,18,08,40,21.00
2015,07,18,08,41,21.00
2015,07,18,08,42,21.10
2015,07,18,08,43,21.10
2015,07,18,08,44,21.10
2015,07,18,08,45,21.10
2015,07,18,08,46,21.20
2015,07,18,08,47,21.20
2015,07,18,08,48,21.20
2015,07,18,08,49,21.20
2015,07,18,08,50,21.20
2015,07,18,08,51,21.20
2015,07,18,08,52,21.20
2015,07,18,08,53,21.30
2015,07,18,08,54,21.30
2015,07,18,08,55,21.30
2015,07,18,08,56,21.30
2015,07,18,08,57,21.40
2015,07,18,08,58,21.40
2015,07,18,08,59,21.50
2015,07,18,09,00,21.60
2015,07,18,09,01,21.60
2015,07,18,09,02,21.60
2015,07,18,09,03,21.60
2015,07,18,09,04,21.60
2015,07,18,09,05,21.70
2015,07,18,09,06,21.70
2015,07,18,09,07,21.80
2015,07,18,09,08,21.80
2015,07,18,09,09,21.80
2015,07,18,09,10,21.70
2015,07,18,09,11,21.70
2015,07,18,09,12,21.70
2015,07,18,09,13,21.80
2015,07,18,09,14,21.80
2015,07,18,09,15,21.80
2015,07,18,09,16,21.80
2015,07,18,09,17,21.80
2015,07,18,09,18,21.80
2015,07,18,09,19,21.80
2015,07,18,09,20,21.80
2015,07,18,09,21,21.80
2015,07,18,09,22,21.80
2015,07,18,09,23,21.80
2015,07,18,09,24,21.80
2015,07,18,09,25,21.90
2015,07,18,09,26,21.90
2015,07,18,09,27,22.00
2015,07,18,09,28,22.10
2015,07,18,09,29,22.10
2015,07,18,09,30,22.10
2015,07,18,09,31,22.20
2015,07,18,09,32,22.20
2015,07,18,09,33,22.20
2015,07,18,09,34,22.20
2015,07,18,09,35,22.20
2015,07,18,09,36,22.20
2015,07,18,09,37,22.20
2015,07,18,09,38,22.10
2015,07,18,09,39,22.10
2015,07,18,09,40,22.10
2015,07,18,09,41,22.20
2015,07,18,09,42,22.20
2015,07,18,09,43,22.30
2015,07,18,09,44,22.30
2015,07,18,09,45,22.40
2015,07,18,09,46,22.40
2015,07,18,09,47,22.40
2015,07,18,09,48,22.50
2015,07,18,09,49,22.60
2015,07,18,09,50,22.60
2015,07,18,09,51,22.70
2015,07,18,09,52,22.70
2015,07,18,09,53,22.80
2015,07,18,09,54,22.70
2015,07,18,09,55,22.70
2015,07,18,09,56,22.80
2015,07,18,09,57,22.80
2015,07,18,09,58,22.80
2015,07,18,09,59,22.80
2015,07,18,10,00,22.80
2015,07,18,10,01,22.90
2015,07,18,10,02,22.90
2015,07,18,10,03,23.00
2015,07,18,10,04,23.00
2015,07,18,10,05,23.00
2015,07,18,10,06,23.00
2015,07,18,10,07,23.10
2015,07,18,10,08,23.10
2015,07,18,10,09,23.20
2015,07,18,10,10,23.20
2015,07,18,10,11,23.30
2015,07,18,10,12,23.30
2015,07,18,10,13,23.30
2015,07,18,10,14,23.30
2015,07,18,10,15,23.30
2015,07,18,10,16,23.30
2015,07,18,10,17,23.40
2015,07,18,10,18,23.40
2015,07,18,10,19,23.40
2015,07,18,10,20,23.40
2015,07,18,10,21,23.40
2015,07,18,10,22,23.40
2015,07,18,10,23,23.40
2015,07,18,10,24,23.40
2015,07,18,10,25,23.40
2015,07,18,10,26,23.40
2015,07,18,10,27,23.50
2015,07,18,10,28,23.50
2015,07,18,10,29,23.50
2015,07,18,10,30,23.50
2015,07,18,10,31,23.50
2015,07,18,10,32,23.50
2015,07,18,10,33,23.50
2015,07,18,10,34,23.50
2015,07,18,10,35,23.50
2015,07,18,10,36,23.50
2015,07,18,10,37,23.60
2015,07,18,10,38,23.70
2015,07,18,10,39,23.70
2015,07,18,10,40,23.80
2015,07,18,10,41,23.80
2015,07,18,10,42,23.70
2015,07,18,10,43,23.70
2015,07,18,10,44,23.70
2015,07,18,10,45,23.70
2015,07,18,10,46,23.80
2015,07,18,10,47,23.80
2015,07,18,10,48,23.80
2015,07,18,10,49,23.70
2015,07,18,10,50,23.80
2015,07,18,10,51,23.70
2015,07,18,10,52,23.70
2015,07,18,10,53,23.80
2015,07,18,10,54,23.80
2015,07,18,10,55,23.80
2015,07,18,10,56,23.80
2015,07,18,10,57,23.90
2015,07,18,10,58,24.00
2015,07,18,10,59,24.10
2015,07,18,11,00,24.20
2015,07,18,11,01,24.30
2015,07,18,11,02,24.30
2015,07,18,11,03,24.30
2015,07,18,11,04,24.20
2015,07,18,11,05,24.20
2015,07,18,11,06,24.20
2015,07,18,11,07,24.30
2015,07,18,11,08,24.30
2015,07,18,11,09,24.30
2015,07,18,11,10,24.30
2015,07,18,11,11,24.30
2015,07,18,11,12,24.30
2015,07,18,11,13,24.30
2015,07,18,11,14,24.40
2015,07,18,11,15,24.40
2015,07,18,11,16,24.50
2015,07,18,11,17,24.50
2015,07,18,11,18,24.60
2015,07,18,11,19,24.60
2015,07,18,11,20,24.60
2015,07,18,11,21,24.60
2015,07,18,11,22,24.60
2015,07,18,11,23,24.60
2015,07,18,11,24,24.50
2015,07,18,11,25,24.40
2015,07,18,11,26,24.40
2015,07,18,11,27,24.40
2015,07,18,11,28,24.40
2015,07,18,11,29,24.50
2015,07,18,11,30,24.60
2015,07,18,11,31,24.60
2015,07,18,11,32,24.60
2015,07,18,11,33,24.60
2015,07,18,11,34,24.60
2015,07,18,11,35,24.40
2015,07,18,11,36,24.30
2015,07,18,11,37,24.20
2015,07,18,11,38,24.20
2015,07,18,11,39,24.30
2015,07,18,11,40,24.30
2015,07,18,11,41,24.30
2015,07,18,11,42,24.40
2015,07,18,11,43,24.50
2015,07,18,11,44,24.60
2015,07,18,11,45,24.70
2015,07,18,11,46,24.70
2015,07,18,11,47,24.70
2015,07,18,11,48,24.60
2015,07,18,11,49,24.70
2015,07,18,11,50,24.70
2015,07,18,11,51,24.70
2015,07,18,11,52,24.80
2015,07,18,11,53,24.80
2015,07,18,11,54,24.80
2015,07,18,11,55,24.70
2015,07,18,11,56,24.70
2015,07,18,11,57,24.70
2015,07,18,11,58,24.70
2015,07,18,11,59,24.70
2015,07,18,12,00,24.80
2015,07,18,12,01,24.80
2015,07,18,12,02,24.80
2015,07,18,12,03,24.90
2015,07,18,12,04,25.00
2015,07,18,12,05,25.00
2015,07,18,12,06,24.90
2015,07,18,12,07,24.90
2015,07,18,12,08,25.00
2015,07,18,12,09,25.10
2015,07,18,12,10,25.10
2015,07,18,12,11,25.10
2015,07,18,12,12,25.20
2015,07,18,12,13,25.30
2015,07,18,12,14,25.40
2015,07,18,12,15,25.50
2015,07,18,12,16,25.60
2015,07,18,12,17,25.70
2015,07,18,12,18,25.80
2015,07,18,12,19,25.80
2015,07,18,12,20,25.90
2015,07,18,12,21,25.90
2015,07,18,12,22,25.90
2015,07,18,12,23,25.90
2015,07,18,12,24,25.80
2015,07,18,12,25,25.80
2015,07,18,12,26,25.80
2015,07,18,12,27,25.80
2015,07,18,12,28,25.80
2015,07,18,12,29,25.80
2015,07,18,12,30,25.80
2015,07,18,12,31,25.80
2015,07,18,12,32,25.80
2015,07,18,12,33,25.80
2015,07,18,12,34,25.80
2015,07,18,12,35,25.80
2015,07,18,12,36,25.80
2015,07,18,12,37,25.80
2015,07,18,12,38,25.80
2015,07,18,12,39,25.90
2015,07,18,12,40,25.90
2015,07,18,12,41,25.90
2015,07,18,12,42,25.90
2015,07,18,12,43,25.90
2015,07,18,12,44,26.00
2015,07,18,12,45,26.10
2015,07,18,12,46,26.20
2015,07,18,12,47,26.30
2015,07,18,12,48,26.30
2015,07,18,12,49,26.40
2015,07,18,12,50,26.50
2015,07,18,12,51,26.60
2015,07,18,12,52,26.60
2015,07,18,12,53,26.50
2015,07,18,12,54,26.50
2015,07,18,12,55,26.40
2015,07,18,12,56,26.30
2015,07,18,12,57,26.30
2015,07,18,12,58,26.40
2015,07,18,12,59,26.40
2015,07,18,13,00,26.50
2015,07,18,13,01,26.60
2015,07,18,13,02,26.60
2015,07,18,13,03,26.70
2015,07,18,13,04,26.70
2015,07,18,13,05,26.30
2015,07,18,13,06,25.90
2015,07,18,13,07,25.50
2015,07,18,13,08,25.10
2015,07,18,13,09,24.80
2015,07,18,13,10,24.50
2015,07,18,13,11,24.30
2015,07,18,13,12,24.20
2015,07,18,13,13,24.10
2015,07,18,13,14,24.10
2015,07,18,13,15,24.00
2015,07,18,13,16,23.90
2015,07,18,13,17,23.70
2015,07,18,13,18,23.60
2015,07,18,13,19,23.50
2015,07,18,13,20,23.40
2015,07,18,13,21,23.30
2015,07,18,13,22,23.20
2015,07,18,13,23,23.20
2015,07,18,13,24,23.20
2015,07,18,13,25,23.20
2015,07,18,13,26,23.20
2015,07,18,13,27,23.30
2015,07,18,13,28,23.40
2015,07,18,13,29,23.50
2015,07,18,13,30,23.50
2015,07,18,13,31,23.60
2015,07,18,13,32,23.60
2015,07,18,13,33,23.70
2015,07,18,13,34,23.60
2015,07,18,13,35,23.50
2015,07,18,13,36,23.40
2015,07,18,13,37,23.30
2015,07,18,13,38,23.30
2015,07,18,13,39,23.30
2015,07,18,13,40,23.20
2015,07,18,13,41,23.20
2015,07,18,13,42,23.20
2015,07,18,13,43,23.20
2015,07,18,13,44,23.10
2015,07,18,13,45,23.00
2015,07,18,13,46,23.00
2015,07,18,13,47,23.00
2015,07,18,13,48,23.00
2015,07,18,13,49,22.90
2015,07,18,13,50,22.80
2015,07,18,13,51,22.80
2015,07,18,13,52,22.70
2015,07,18,13,53,22.70
2015,07,18,13,54,22.70
2015,07,18,13,55,22.70
2015,07,18,13,56,22.70
2015,07,18,13,57,22.70
2015,07,18,13,58,22.80
2015,07,18,13,59,22.90
2015,07,18,14,00,22.90
2015,07,18,14,01,22.90
2015,07,18,14,02,22.90
2015,07,18,14,03,22.90
2015,07,18,14,04,22.90
2015,07,18,14,05,22.90
2015,07,18,14,06,22.80
2015,07,18,14,07,22.80
2015,07,18,14,08,22.80
2015,07,18,14,09,22.90
2015,07,18,14,10,23.00
2015,07,18,14,11,23.10
2015,07,18,14,12,23.20
2015,07,18,14,13,23.20
2015,07,18,14,14,23.20
2015,07,18,14,15,23.20
2015,07,18,14,16,23.30
2015,07,18,14,17,23.30
2015,07,18,14,18,23.30
2015,07,18,14,19,23.40
2015,07,18,14,20,23.50
2015,07,18,14,21,23.50
2015,07,18,14,22,23.60
2015,07,18,14,23,23.70
2015,07,18,14,24,23.80
2015,07,18,14,25,24.00
2015,07,18,14,26,24.10
2015,07,18,14,27,24.20
2015,07,18,14,28,24.20
2015,07,18,14,29,24.20
2015,07,18,14,30,24.30
2015,07,18,14,31,24.30
2015,07,18,14,32,24.40
2015,07,18,14,33,24.40
2015,07,18,14,34,24.50
2015,07,18,14,35,24.50
2015,07,18,14,36,24.60
2015,07,18,14,37,24.80
2015,07,18,14,38,24.90
2015,07,18,14,39,25.00
2015,07,18,14,40,25.10
2015,07,18,14,41,25.10
2015,07,18,14,42,25.10
2015,07,18,14,43,25.10
2015,07,18,14,44,25.00
2015,07,18,14,45,24.90
2015,07,18,14,46,24.80
2015,07,18,14,47,24.60
2015,07,18,14,48,24.50
2015,07,18,14,49,24.40
2015,07,18,14,50,24.20
2015,07,18,14,51,24.10
2015,07,18,14,52,24.10
2015,07,18,14,53,24.10
2015,07,18,14,54,24.10
2015,07,18,14,55,24.20
2015,07,18,14,56,24.20
2015,07,18,14,57,24.20
2015,07,18,14,58,24.30
2015,07,18,14,59,24.30
2015,07,18,15,00,24.40
2015,07,18,15,01,24.40
2015,07,18,15,02,24.50
2015,07,18,15,03,24.70
2015,07,18,15,04,24.80
2015,07,18,15,05,24.80
2015,07,18,15,06,24.90
2015,07,18,15,07,25.00
2015,07,18,15,08,25.10
2015,07,18,15,09,25.20
2015,07,18,15,10,25.20
2015,07,18,15,11,25.30
2015,07,18,15,12,25.30
2015,07,18,15,13,25.30
2015,07,18,15,14,25.30
2015,07,18,15,15,25.30
2015,07,18,15,16,25.40
2015,07,18,15,17,25.50
2015,07,18,15,18,25.50
2015,07,18,15,19,25.60
2015,07,18,15,20,25.80
2015,07,18,15,21,26.00
2015,07,18,15,22,26.20
2015,07,18,15,23,26.30
2015,07,18,15,24,26.50
2015,07,18,15,25,26.60
2015,07,18,15,26,26.70
2015,07,18,15,27,26.90
2015,07,18,15,28,27.10
2015,07,18,15,29,27.30
2015,07,18,15,30,27.50
2015,07,18,15,31,27.60
2015,07,18,15,32,27.70
2015,07,18,15,33,27.70
2015,07,18,15,34,27.80
2015,07,18,15,35,27.80
2015,07,18,15,36,27.80
2015,07,18,15,37,27.90
2015,07,18,15,38,28.00
2015,07,18,15,39,28.10
2015,07,18,15,40,28.20
2015,07,18,15,41,28.40
2015,07,18,15,42,28.60
2015,07,18,15,43,28.80
2015,07,18,15,44,29.00
2015,07,18,15,45,29.10
2015,07,18,15,46,29.00
2015,07,18,15,47,28.80
2015,07,18,15,48,28.70
2015,07,18,15,49,28.40
2015,07,18,15,50,28.10
2015,07,18,15,51,27.90
2015,07,18,15,52,27.80
2015,07,18,15,53,27.70
2015,07,18,15,54,27.60
2015,07,18,15,55,27.60
2015,07,18,15,56,27.70
2015,07,18,15,57,27.70
2015,07,18,15,58,27.70
2015,07,18,15,59,27.80
2015,07,18,16,00,27.80
2015,07,18,16,01,27.80
2015,07,18,16,02,27.70
2015,07,18,16,03,27.50
2015,07,18,16,04,27.30
2015,07,18,16,05,27.20
2015,07,18,16,06,27.00
2015,07,18,16,07,26.90
2015,07,18,16,08,26.80
2015,07,18,16,09,26.80
2015,07,18,16,10,26.90
2015,07,18,16,11,26.90
2015,07,18,16,12,26.90
2015,07,18,16,13,26.90
2015,07,18,16,14,26.80
2015,07,18,16,15,26.80
2015,07,18,16,16,26.70
2015,07,18,16,17,26.70
2015,07,18,16,18,26.70
2015,07,18,16,19,26.70
2015,07,18,16,20,26.80
2015,07,18,16,21,26.70
2015,07,18,16,22,26.80
2015,07,18,16,23,26.80
2015,07,18,16,24,26.90
2015,07,18,16,25,26.90
2015,07,18,16,26,26.90
2015,07,18,16,27,26.90
2015,07,18,16,28,26.90
2015,07,18,16,29,26.80
2015,07,18,16,30,26.70
2015,07,18,16,31,26.60
2015,07,18,16,32,26.50
2015,07,18,16,33,26.50
2015,07,18,16,34,26.50
2015,07,18,16,35,26.50
2015,07,18,16,36,26.40
2015,07,18,16,37,26.40
2015,07,18,16,38,26.30
2015,07,18,16,39,26.20
2015,07,18,16,40,26.10
2015,07,18,16,41,25.90
2015,07,18,16,42,25.70
2015,07,18,16,43,25.50
2015,07,18,16,44,25.30
2015,07,18,16,45,25.30
2015,07,18,16,46,25.20
2015,07,18,16,47,25.20
2015,07,18,16,48,25.20
2015,07,18,16,49,25.10
2015,07,18,16,50,25.10
2015,07,18,16,51,25.00
2015,07,18,16,52,24.80
2015,07,18,16,53,24.80
2015,07,18,16,54,24.70
2015,07,18,16,55,24.50
2015,07,18,16,56,24.30
2015,07,18,16,57,24.20
2015,07,18,16,58,24.20
2015,07,18,16,59,24.20
2015,07,18,17,00,24.00
2015,07,18,17,01,23.80
2015,07,18,17,02,23.70
2015,07,18,17,03,23.40
2015,07,18,17,04,23.30
2015,07,18,17,05,23.30
2015,07,18,17,06,23.20
2015,07,18,17,07,23.30
2015,07,18,17,08,23.40
2015,07,18,17,09,23.50
2015,07,18,17,10,23.60
2015,07,18,17,11,23.60
2015,07,18,17,12,23.70
2015,07,18,17,13,23.70
2015,07,18,17,14,23.70
2015,07,18,17,15,23.80
2015,07,18,17,16,23.90
2015,07,18,17,17,24.00
2015,07,18,17,18,24.20
2015,07,18,17,19,24.30
2015,07,18,17,20,24.40
2015,07,18,17,21,24.50